sat.trackr.live / text

‹ back to catalog

STARLINK-37858

NORAD 69555 · 2026-135K

PAYLOAD ACTIVE UNKNOWN

§ Identity

Operator
Country
US
Launch date
2026-06-15
Launch site
AFWTR
Launch vehicle
Mass (kg)
RCS (m²)

Purposes: comms

External: N2YO · Heavens-Above · Gunter

§ Orbital elements

Epoch: 2026-09-20T00:07:43.436640Z

Period
93.91 min
Inclination
97.2845°
Eccentricity
0.0001360
Mean motion
15.33444756 rev/d
Perigee alt
464.6 km
Apogee alt
466.5 km
Semi-major
6,843.7 km
B*
1.3316e-4
RAAN
290.6876°
Arg perigee
97.0950°
Mean anomaly
263.0447°
Rev number
1,492

§ Raw data

STARLINK-378581 69555U 26135K   26263.00536385  .00004226  00000+0  13316-3 0  99962 69555  97.2845 290.6876 0001360  97.0950 263.0447 15.33444756 14929

JSON: /api/v1/satellites/69555 · /tle

For live sub-satellite position, see the globe view (requires WebGL).

§ Visibility from observer

Set your observer location to see the next 7 days of passes ≥ 10°. The values pass through the URL so the page stays shareable.

No JS? Fill the form by hand. The geolocation button needs JavaScript.